Dewpoint
53 52 51 51 52 51 51 51 52 52 53 54 54 54 54 53 54 54 53 53 51 51 52 52 50 50 43 39 42 48 52 53 55 52 49 45 45 39 38 37 27 24 24 25 26 26 25
52 52 52 53 52 52 52 52 52 52 53 53 54 54 54 54 53 53 53 54 53 51 51 51 51 45 41 37 46 48 50 53 52 49 47 45 42 38 34 28 26 26 25 25 25 23 24
52 52 52 52 52 52 52 52 52 52 52 53 53 54 54 54 53 53 53 53 54 49 48 49 50 40 39 40 46 47 49 51 50 49 43 44 43 36 28 25 27 26 22 24 25 23 22
52 51 51 51 51 52 52 52 51 52 52 52 53 53 53 53 53 53 53 52 50 46 45 46 46 41 39 47 49 46 48 48 49 50 48 46 44 36 28 28 26 23 23 22 23 22 21
50 51 50 50 51 51 52 52 52 51 52 52 52 53 53 53 53 53 52 51 50 48 48 46 40 41 40 50 46 45 44 43 43 45 48 43 38 28 26 23 22 22 20 21 21 25 21
50 49 50 50 51 51 51 52 53 51 51 52 52 53 53 53 53 52 48 46 44 40 39 39 41 39 44 40 43 40 42 42 40 42 42 34 27 24 23 21 20 19 19 20 20 23 20
50 50 50 50 50 51 51 53 51 51 51 52 52 52 53 53 52 50 39 34 32 28 34 32 33 36 35 36 39 40 45 45 44 39 33 25 24 21 21 22 20 20 18 19 22 24 20
50 50 50 50 51 51 51 52 52 51 51 52 52 52 52 52 51 46 39 33 37 40 28 33 33 33 35 36 39 41 45 37 39 34 25 24 23 28 26 24 21 20 18 20 21 22 17
50 49 49 50 51 51 52 52 52 51 52 52 52 52 51 50 48 41 39 40 44 44 26 27 32 32 32 32 36 38 37 30 28 27 25 24 27 29 24 23 19 22 16 19 16 21 22
48 48 48 49 51 51 52 53 53 52 52 52 51 50 51 47 33 40 38 43 45 43 22 24 27 30 30 32 26 32 34 30 26 25 27 27 28 26 22 23 22 16 26 21 18 9 4
49 49 49 50 51 51 52 52 52 52 52 52 50 50 50 44 38 35 41 45 42 31 11 23 28 33 29 27 29 27 33 30 27 28 23 25 27 25 23 25 26 23 25 22 19 14 15
49 49 50 51 51 51 52 52 53 53 52 52 51 48 46 43 41 43 45 42 33 18 13 23 28 29 25 28 28 29 29 30 30 24 28 29 31 31 28 29 27 26 21 19 18 11 -1
50 50 50 51 51 51 52 53 53 53 52 52 50 48 44 44 37 45 41 35 21 15 23 23 26 28 26 26 26 28 27 28 23 14 15 21 26 31 33 24 25 22 10 1 -1 -1 -1
49 50 51 51 51 51 52 53 53 53 53 51 48 46 44 45 44 43 35 24 15 21 24 28 28 26 23 26 24 26 24 24 28 24 15 10 10 28 33 29 20 25 18 2 -6 -4 5
49 50 51 52 51 52 52 53 53 53 52 48 46 44 38 40 45 39 29 19 18 23 29 28 24 21 22 25 25 24 26 27 28 29 17 13 17 30 33 33 27 24 14 23 19 20 15
48 51 51 51 52 52 52 52 52 53 52 48 40 39 39 43 44 33 25 25 28 30 33 30 23 24 21 24 23 23 24 29 29 29 30 25 13 29 31 31 31 26 26 12 15 -4 -4
47 50 51 51 52 52 52 52 52 52 52 46 39 28 36 44 38 30 19 25 30 33 33 29 28 26 25 23 24 25 25 28 31 30 29 27 17 24 27 23 23 26 23 26 19 18 5
47 49 50 51 52 52 52 52 51 52 51 40 32 22 39 39 24 31 28 31 33 32 33 32 30 28 25 24 24 26 27 30 33 32 25 29 24 15 19 29 31 26 24 25 16 14 22
46 48 50 50 51 51 52 51 51 51 50 40 33 33 37 32 16 25 31 31 33 31 30 30 28 28 27 24 19 26 28 33 33 31 29 28 21 14 15 20 27 28 29 25 24 24 20
46 47 49 50 51 51 51 51 51 51 49 38 29 21 29 31 30 27 26 28 25 32 31 30 28 28 24 22 23 22 24 32 34 32 33 27 23 18 6 12 22 24 26 28 24 20 16
48 48 48 50 50 51 51 51 51 50 48 37 33 29 31 24 26 28 26 26 26 25 30 30 26 26 24 20 20 19 27 29 33 34 30 20 8 19 19 21 22 21 22 26 27 25 19
50 49 49 49 49 50 50 50 51 49 44 36 28 28 32 29 30 26 25 24 24 26 27 27 25 26 26 22 21 18 22 24 22 32 29 28 12 23 14 21 21 18 19 20 22 26 27
51 51 49 49 49 49 49 50 51 49 42 37 37 36 34 33 30 28 26 24 25 27 29 30 28 26 24 27 30 30 30 28 29 29 27 27 21 19 11 21 20 13 15 20 21 22 20
53 52 51 49 49 48 49 49 50 50 43 40 39 38 33 23 30 29 26 27 27 28 27 30 29 27 29 34 32 30 30 30 29 29 30 27 24 24 19 17 11 16 19 18 19 19 21
54 53 52 50 49 49 48 48 50 50 46 42 40 38 35 26 32 32 29 28 29 28 28 27 30 32 33 29 24 20 20 21 26 28 28 29 26 21 18 17 17 15 16 17 16 15 22
52 54 53 52 50 49 49 48 49 50 48 44 41 40 38 32 25 31 29 28 27 28 26 27 32 34 31 27 22 19 17 18 17 25 29 28 27 22 21 16 15 15 21 21 19 14 23
48 49 51 54 53 51 49 49 48 50 50 45 43 40 39 36 36 31 28 29 30 29 29 30 29 30 30 25 23 21 20 20 17 19 23 25 25 23 22 20 20 23 24 22 16 16 23
45 46 47 49 52 53 51 49 49 49 50 47 43 42 42 38 38 39 34 32 32 32 30 30 30 31 29 25 24 24 23 23 19 20 23 22 22 23 23 22 18 25 24 20 20 23 24
43 44 45 46 48 50 53 51 49 49 50 49 44 44 43 41 39 41 41 38 34 34 33 32 31 31 31 27 27 27 26 23 21 20 24 20 23 21 23 22 24 24 23 24 25 25 28
Wind_Speed
15 15 15 16 16 16 17 16 17 18 19 18 19 19 20 19 19 19 19 17 12 9 7 10 13 10 2 4 5 5 8 5 4 6 7 1 9 5 10 5 3 6 4 5 2 6 8
16 16 17 17 17 18 18 18 17 18 19 18 19 19 20 20 19 18 18 17 11 7 5 8 11 5 3 5 6 4 4 5 1 7 3 5 0 3 4 3 1 4 10 6 8 6 6
17 18 18 18 19 19 20 19 18 18 18 19 17 19 20 20 19 19 18 15 9 7 5 5 7 5 15 6 5 5 2 3 2 2 6 3 7 2 3 7 5 5 11 10 14 7 5
17 18 19 19 20 21 21 21 20 18 18 18 18 17 19 21 20 20 17 15 6 2 1 4 11 8 5 8 5 2 2 4 4 6 4 2 4 2 3 6 5 5 6 7 6 7 3
16 18 19 20 21 22 22 22 22 19 17 17 18 17 19 19 21 21 21 15 6 6 2 2 8 7 6 20 4 2 4 5 4 6 2 6 3 3 4 6 6 8 9 8 3 7 2
17 18 19 20 21 23 24 24 22 21 18 16 15 17 18 18 19 21 22 8 7 5 7 9 6 7 4 2 5 2 5 4 4 8 2 4 4 5 4 3 14 8 11 5 5 5 4
17 18 20 21 22 24 25 25 25 21 19 17 14 13 15 18 18 16 12 4 7 4 10 6 3 5 2 2 5 11 7 4 4 9 4 1 7 10 4 2 2 10 13 11 1 4 2
17 18 20 21 23 24 25 26 25 23 21 18 15 11 12 15 16 12 6 6 2 2 3 3 3 1 2 3 9 8 8 2 2 3 2 6 8 3 3 3 8 7 15 6 2 5 2
16 17 19 21 23 24 25 26 26 23 22 19 15 14 13 11 8 5 7 4 1 1 3 7 2 3 3 3 5 9 5 1 2 8 9 12 2 2 7 8 11 8 7 7 6 4 5
15 16 18 20 22 24 26 26 26 24 21 19 16 16 16 12 3 1 3 3 1 0 4 15 12 6 5 2 3 3 3 3 3 8 9 9 8 7 8 6 3 5 2 4 11 4 3
15 16 17 20 22 24 26 27 27 25 22 18 16 15 12 11 4 3 1 3 1 2 4 19 9 6 7 7 4 10 3 6 6 7 6 3 7 9 11 2 2 4 5 8 6 6 2
16 16 17 19 21 23 25 26 27 25 23 18 13 15 10 5 4 1 3 2 1 3 6 8 7 11 8 11 6 8 7 8 2 11 15 5 1 5 3 4 6 10 6 8 6 4 2
15 16 17 18 20 22 24 25 26 26 25 17 9 10 6 2 2 6 3 2 3 7 3 7 5 7 5 10 9 9 9 14 6 4 6 5 6 3 4 6 5 4 4 3 1 2 5
14 15 16 17 19 21 23 24 26 26 25 15 5 5 6 3 5 5 4 4 9 2 3 3 4 5 6 8 7 9 4 6 9 5 4 4 3 7 8 3 3 4 2 3 4 4 2
13 14 15 16 18 20 23 24 26 26 24 14 2 3 3 6 4 4 4 7 3 4 2 5 3 5 5 4 4 5 7 3 5 7 3 3 3 3 6 4 2 3 3 4 7 2 1
12 13 14 15 17 19 21 24 26 26 24 10 2 2 4 5 3 4 5 4 3 4 0 1 3 3 4 8 4 5 6 4 5 6 1 2 4 3 3 2 7 1 9 3 2 2 4
11 12 14 15 16 18 20 23 26 27 25 3 3 2 3 3 2 8 5 2 2 3 2 3 2 1 2 3 4 5 3 2 3 5 5 1 1 0 1 2 2 2 1 5 5 2 3
12 11 12 13 15 17 19 22 25 27 24 5 2 2 3 1 4 4 4 3 2 0 2 1 2 4 2 2 3 2 3 3 8 4 3 3 3 3 1 0 1 2 2 3 2 4 2
10 12 11 12 13 16 19 21 24 26 17 3 4 3 2 1 5 4 2 3 3 3 4 4 3 1 1 4 4 2 2 1 5 6 3 3 2 1 1 1 1 3 4 3 6 3 8
8 10 10 12 14 16 18 20 23 24 13 3 3 4 5 7 2 5 3 3 3 3 3 3 3 3 3 3 2 5 5 2 1 3 5 3 3 0 2 1 1 3 5 7 5 5 5
9 8 9 10 11 14 17 20 23 25 12 3 6 2 1 4 5 5 2 2 1 2 1 3 3 3 4 5 5 4 0 2 2 1 1 2 5 5 5 7 5 7 9 8 17 12 12
10 9 8 7 9 12 15 18 21 26 8 6 2 1 2 1 1 1 2 2 2 1 1 1 1 1 1 0 0 5 5 4 4 2 2 1 2 1 4 5 8 11 17 17 18 14 19
11 10 9 7 8 9 11 15 17 22 9 5 2 1 1 1 1 0 1 1 2 2 2 2 2 1 2 2 1 3 5 5 0 3 2 3 2 2 4 7 10 13 14 11 5 7 10
10 10 10 9 8 7 8 11 12 14 10 3 2 2 2 3 2 2 2 2 3 3 2 1 2 2 2 1 1 1 2 1 1 2 4 3 1 2 6 5 4 2 4 4 10 7 11
10 11 10 10 9 8 6 7 7 8 8 4 2 2 2 3 3 5 4 3 2 0 2 3 2 0 0 2 1 3 2 0 2 4 1 2 5 1 3 4 11 2 2 2 2 2 2
14 10 11 11 10 10 8 6 5 4 4 4 2 2 2 1 4 2 2 3 4 4 1 2 0 1 2 2 2 2 4 3 2 1 4 3 3 4 3 3 5 2 1 1 2 5 2
12 13 14 11 12 12 11 8 7 5 1 1 0 2 2 2 3 5 5 3 4 2 2 1 3 2 2 3 5 7 5 3 4 5 6 5 3 12 9 5 10 8 4 1 1 4 8
11 11 13 15 11 13 14 12 10 9 6 3 1 3 1 2 7 4 4 5 4 4 4 4 2 1 2 5 5 4 5 4 2 3 6 10 11 7 6 6 9 6 2 1 2 3 6
11 12 12 14 14 15 14 16 14 12 11 8 3 2 3 4 5 3 5 4 4 4 5 5 2 3 6 3 3 2 3 2 3 4 2 6 8 5 14 9 6 5 3 5 3 6 1
Wind_Direction
30 25 19 15 6 360 360 354 349 343 343 345 342 344 342 341 342 345 349 3 32 51 61 25 15 16 24 44 28 330 334 12 110 92 81 3 160 129 152 178 139 117 118 61 49 104 95
26 24 20 14 10 6 1 355 352 342 341 343 342 342 340 338 338 340 344 350 20 49 23 321 346 21 39 66 314 338 333 40 340 119 158 211 87 310 146 134 140 126 106 94 54 67 58
25 22 17 14 10 7 2 357 351 346 342 338 344 339 338 336 336 338 343 346 15 51 41 40 351 92 58 19 323 318 1 83 286 221 122 39 335 313 140 116 139 120 94 74 26 6 85
22 17 14 10 6 5 2 357 351 346 343 339 338 341 336 335 336 336 333 330 344 136 125 334 30 69 53 358 335 71 18 83 45 73 93 71 316 263 68 120 50 85 66 117 353 4 22
16 13 10 8 4 2 0 358 352 346 343 342 335 341 334 336 334 332 329 321 354 343 107 21 41 79 15 329 21 1 59 41 25 96 128 315 9 72 73 113 97 36 132 114 102 23 83
14 11 9 6 4 2 1 359 354 349 344 341 339 336 333 334 336 336 327 306 343 88 66 80 104 68 234 201 312 55 80 9 28 78 33 354 22 95 68 72 169 154 119 81 126 4 56
12 8 9 6 5 2 2 360 358 355 348 341 339 341 336 332 337 345 356 23 14 1 38 68 140 119 329 148 82 68 47 33 80 118 175 220 106 131 116 53 141 132 121 123 72 2 102
11 8 8 6 5 3 3 3 1 359 353 347 340 342 343 336 336 349 51 68 77 316 14 44 62 11 48 8 108 122 149 63 80 227 168 80 89 346 69 73 107 105 134 106 66 30 86
10 8 7 4 2 1 359 1 4 3 357 352 349 343 341 335 342 32 69 76 78 360 23 1 355 355 41 123 116 188 193 202 15 104 111 107 355 19 122 76 103 58 121 151 152 115 68
8 6 5 1 358 358 357 356 359 3 0 355 350 347 342 329 94 58 45 349 55 117 66 354 352 17 344 152 85 214 184 241 46 71 73 62 356 91 121 89 73 105 2 118 127 126 181
8 6 3 358 356 356 355 353 355 359 356 355 351 351 351 29 126 65 276 321 150 82 42 323 325 311 341 76 307 15 6 58 85 34 112 56 46 63 89 33 51 111 106 106 102 89 110
9 6 2 357 355 354 352 349 349 352 353 348 350 351 350 6 51 37 306 327 35 41 42 347 325 355 14 21 25 349 26 45 141 63 59 87 49 56 66 45 93 139 95 66 68 86 224
4 3 1 358 356 353 352 350 349 351 349 343 346 0 30 1 16 327 338 26 27 68 308 338 340 352 2 8 22 25 45 43 43 90 57 36 25 20 38 86 59 81 77 72 100 213 229
358 360 360 357 356 355 354 350 349 350 352 352 9 40 30 44 345 1 23 50 60 239 270 317 327 341 45 9 21 18 54 46 19 42 92 107 113 9 351 55 145 77 109 145 186 192 270
344 353 356 356 356 357 354 351 349 349 351 353 3 26 50 354 359 25 60 50 133 194 311 342 350 36 1 22 39 54 41 49 16 13 77 118 76 341 36 20 15 161 125 140 106 82 317
342 343 351 352 355 356 355 352 349 349 348 345 41 41 14 334 14 59 80 112 159 198 190 351 72 25 31 353 27 55 30 6 354 22 322 151 114 19 344 13 43 113 141 124 55 232 244
339 341 346 348 350 351 351 352 348 349 350 355 59 55 338 349 42 54 75 112 184 243 207 130 122 82 66 20 27 16 11 58 18 349 40 43 98 305 352 38 169 110 141 65 109 128 204
331 335 338 343 346 348 350 351 348 351 353 43 68 1 326 18 33 43 51 28 334 281 316 272 136 137 127 76 87 81 14 336 350 336 55 29 97 111 144 136 251 196 176 158 187 209 109
322 317 326 335 341 345 348 350 349 353 5 8 358 318 342 77 54 50 35 28 31 345 336 337 327 327 225 144 129 148 156 243 14 35 46 5 42 86 2 11 7 235 205 154 115 114 207
281 300 318 331 337 342 344 348 349 355 9 65 11 356 12 58 82 97 59 25 358 9 337 344 326 342 349 359 352 156 152 196 27 114 91 101 58 211 228 257 158 238 223 199 178 205 212
293 301 314 326 331 339 345 348 351 353 2 80 29 43 349 4 33 103 124 137 67 359 38 21 348 351 353 338 335 327 262 153 153 167 74 135 164 175 247 260 259 259 257 215 216 224 232
273 287 299 311 323 338 346 350 354 351 12 70 47 36 43 93 323 1 9 186 170 187 171 43 280 356 35 168 142 330 350 347 338 20 100 32 213 270 277 181 186 249 245 237 240 253 263
269 279 287 288 301 328 343 349 357 359 17 84 45 48 103 328 115 184 230 200 208 174 174 166 171 354 321 276 201 175 154 156 228 2 340 354 113 35 273 345 323 285 273 222 207 209 224
264 273 278 282 295 308 333 346 357 11 36 97 113 108 57 289 244 228 201 210 218 216 244 260 147 173 175 232 214 83 52 37 106 110 126 152 102 353 300 339 261 229 298 228 228 254 234
268 267 271 276 283 286 302 327 345 7 24 69 128 107 121 286 249 272 224 208 151 234 234 244 231 195 131 75 348 327 321 311 40 29 185 128 147 241 276 276 300 36 40 103 77 288 253
2 289 272 271 272 276 276 292 310 336 35 71 57 116 105 164 231 195 193 198 220 219 262 221 360 132 64 97 130 230 258 247 249 152 38 93 82 172 157 247 255 240 351 28 138 301 21
359 353 355 288 273 267 267 260 268 271 259 90 228 179 83 257 254 166 197 204 150 161 215 234 184 183 54 172 204 212 228 189 234 206 170 150 184 216 204 246 282 255 261 169 36 315 191
343 352 343 350 322 274 266 257 249 243 208 176 274 195 49 273 281 215 209 180 161 174 197 165 119 210 129 194 205 220 217 219 249 180 183 184 172 188 171 214 268 193 170 232 273 267 235
350 346 333 336 334 339 275 257 244 229 210 172 241 204 178 218 257 253 256 245 209 198 163 176 219 175 195 149 217 170 230 213 202 259 218 231 207 196 196 216 233 204 225 256 244 259 246